Weather in Slavhorod

Ukraine / Dnipropetrovsk Region     48°06′51″N   35°30′47″E
temp.,
°C
wind,
m/s
gust,
m/s
humid.,
%
clouds,
%
prec.,
mm/h
press.,
hPa
HPBL,
m
20 april, tue
tue2000:00+10ne3374100 0.0 101256
03:00+9ne2277100 0.0 101037
06:00+9ne4880100 0.0 1008195
09:00+9ene4690100 2.3 1007296
12:00+9nne3494100 4.5 1004356
15:00+9n2397100 13.7 1003244
18:00+9w5796100 0.4 1002463
21:00+8w5994100 1.7 1004399
21 april, wed
wed2100:00+8wsw61192100 0.4 1006433
03:00+7wsw51189100 0.4 1009287
06:00+6wsw41188100 0.0 1011272
09:00+10wsw586878 0.0 1013678
12:00+14wsw685042 0.0 10141881
15:00+14sw684899 0.1 10141964
18:00+13wsw596345 0.5 1015506
21:00+10sw4876100 0.9 1017149
22 april, thu
thu2200:00+8sw489242 0.9 1018194
03:00+7ssw36935 0.9 1019109
06:00+6ssw34955 0.0 102086
09:00+11ssw45735 0.0 1021453
12:00+15ssw44565 0.0 10211168
15:00+17ssw34455 0.0 10201815
18:00+16s34476 0.0 10201245
21:00+11s487855 0.1 1021153
23 april, fri
fri2300:00+10ssw479192 1.4 1021177
03:00+8ssw37910 2.8 1021141
06:00+7ssw37880 0.0 1021122
09:00+12ssw576631 0.0 1021492
12:00+16ssw675022 0.0 10201420
15:00+17ssw7842100 0.0 10182221
18:00+15s61053100 0.0 1017711
21:00+12s6116898 0.0 1018347
24 april, sat
sat2400:00+10s51072100 0.0 1016324
03:00+9ssw3682100 0.0 1015231
06:00+7nw6891100 1.1 1016617
09:00+9nnw79685 1.6 1018960
12:00+12nw67465 0.0 10181695
15:00+13wnw57385 0.0 10182159
18:00+13wnw474248 0.0 10182165
21:00+9wnw375954 0.0 1019164